Location: Julian California
(33.0790°N, 116.6010°W)
Time: 05:35:44
(UTC-07:00)

Cosmos 405 Rocket - Pass Details

Date: 12 July 2018
Orbit: 490 x 557 km, 81.3° (Epoch: 24 September)

Event Time Altitude Azimuth Distance (km) Brightness Sun altitude
Rises 21:38:57 0° 344° (NNW) 2,645 7.3 -18.3°
Reaches altitude 10° 21:41:08 10° 337° (NNW) 1,765 6.4 -18.7°
Maximum altitude 21:44:50 43° 266° (W) 752 3.8 -19.2°
Enters shadow 21:47:04 21° 204° (SSW) 1,233 4.4 -19.6°
